DELTA 1 DEB, 10768

Orbit data source: Space-Track

DELTA 1 DEB, 10768 is space debris in SSO originally from a launch on Thu, 29 Jul 1976 UTC launched from the Air Force Western Test Range (AFWTR). Debris objects in space refer to the collection of defunct objects orbiting the Earth. Examples of debris include non-operational satellites, rocket bodies, and fragments generated from explosions, collisions, or faulty payload assembly.

Loading next visibility...
Identifier
10768, 1976-077BR
Orbit
SSO
Country
Flag of USUS
Related business
Manufacturer
Unknown
Mission
Spacecraft
Bus & Motor
Unknown
Mass
Unknown
Launch date (UTC)
1976-07-29 (50 years ago)
Launch vehicle
Unknown
Launch site
Air Force Western Test Range (AFWTR)
Object type
Payload
Rocket body
Debris
Shape & HBR
Unknown shape, 0.1 m
Radar Cross Section
Medium (>0.1 m² and <1 m²)

Expand to show TLE details & history
Last TLE update: 13 hours ago

TLE from 13 hours ago
0 DELTA 1 DEB
1 10768U 76077BR  26171.13988644 -.00000087  00000-0 -36104-3 0  9993
2 10768 102.3475 244.6869 0071947 306.5568  81.8644 12.28576837236535
Epoch: 2026-06-20T03:21Z
TLE epoch observation values (Epoch: 2026-06-20T03:21:26.188Z)
Latitude
28.54252°
Longitude
-80.83577°
Altitude
1,550.915 km
Speed
7.097 km/s
True Right ascension
15h 51m 31s
True Declination
28° 24' 46"
Sunlit
Object was in daylight at epoch
Visualization orbit readout
Latitude
Unknown
Longitude
Unknown
Altitude
Unknown
Speed
Unknown
Apparent Right ascension
Unknown
Apparent Declination
Unknown
Sunlit
N/A
Visualization observer readout
Local Sidereal Time
03:13:39
Azimuth
Unknown
Elevation
Unknown
Doppler factor
Unknown
Orbital elements
Apogee altitude
1,610.075 km
Perigee altitude
1,495.95 km
Semi-major axis
7,931.149 km
Eccentricity
0.00719
Inclination
102.3475°
RAAN
244.6869°
Arg. of periapsis
306.5568°
True anomaly
82.68157°
Mean anomaly
81.8644°
Eccentric anomaly
82.27288°
Mean motion
3.07283 °/min
Orbital period
117.16 mins
BSTAR
-0.00036104
Loading maneuver chart data...
Computing Atmospheric mass density...
Loading historical data...
Loading historical data...
Loading historical data...
Loading historical data...
Loading historical data...
Loading historical data...
Loading historical data...

Documentation

Showing up to 5 results
|